[TLELIST] Archives

 

[TLELIST] Current TLEs

May 24th 2025 PDT

HST 1 20580U 90037B 25144.22786262 .00004692 00000-0 17402-3 0 9993 2 20580 28.4676 207.2921 0002628 173.9735 186.0892 15.25078055729286 ISS (ZARYA) 1 25544U 98067A 25144.21448524 .00011675 00000-0 21445-3 0 9995 2 25544 51.6361 65.8478 0002141 142.2972 217.8167 15.49703446511447 CXO 1 25867U 99040B 25145.63205801 .00000510 00000-0 00000-0 0 9998 2 25867 49.0430 130.7337 8462915 309.1597 359.7113 0.37809562 15851 ...Continue Reading

[TLELIST] Current TLEs

May 24th 2025 PDT

HST 1 20580U 90037B 25144.22786262 .00004692 00000-0 17402-3 0 9993 2 20580 28.4676 207.2921 0002628 173.9735 186.0892 15.25078055729286 ISS (ZARYA) 1 25544U 98067A 25144.21448524 .00011675 00000-0 21445-3 0 9995 2 25544 51.6361 65.8478 0002141 142.2972 217.8167 15.49703446511447 CXO 1 25867U 99040B 25145.63205801 .00000510 00000-0 00000-0 0 9998 2 25867 49.0430 130.7337 8462915 309.1597 359.7113 0.37809562 15851 ...Continue Reading

[TLELIST] Current TLEs

May 23rd 2025 PDT

HST 1 20580U 90037B 25142.52644450 .00005376 00000-0 20070-3 0 9991 2 20580 28.4679 218.8202 0002743 155.9393 204.1329 15.25062245728760 ISS (ZARYA) 1 25544U 98067A 25143.33780704 .00008883 00000-0 16527-3 0 9998 2 25544 51.6384 70.1821 0002507 135.2816 10.7078 15.49679665511309 CXO 1 25867U 99040B 25145.63205767 .00000510 00000-0 00000-0 0 9999 2 25867 49.0431 130.7336 8462919 309.1598 359.7113 0.37809466 15859 ...Continue Reading

[TLELIST] Current TLEs

May 22nd 2025 PDT

HST 1 20580U 90037B 25141.54484844 .00005408 00000-0 20199-3 0 9999 2 20580 28.4679 225.4711 0002803 145.8629 214.2145 15.25051879728619 ISS (ZARYA) 1 25544U 98067A 25142.24225541 .00007993 00000-0 14965-3 0 9995 2 25544 51.6388 75.6081 0002453 130.9690 19.0975 15.49655797511132 CXO 1 25867U 99040B 25142.98848869 .00000640 00000-0 00000+0 0 9993 2 25867 48.9452 130.9326 8464725 309.0591 359.8940 0.37807892 27000 ...Continue Reading

[TLELIST] Current TLEs

May 21st 2025 PDT

HST 1 20580U 90037B 25140.95588789 .00005751 00000-0 21534-3 0 9991 2 20580 28.4679 229.4616 0002842 139.9213 220.1592 15.25046011728785 ISS (ZARYA) 1 25544U 98067A 25141.33820368 .00008211 00000-0 15360-3 0 9996 2 25544 51.6382 80.0845 0002544 127.0828 16.1893 15.49641181510997 CXO 1 25867U 99040B 25142.98848869 .00000640 00000-0 00000+0 0 9993 2 25867 48.9452 130.9326 8464725 309.0591 359.8940 0.37807892 27000 ...Continue Reading

[TLELIST] [TLELIST] Current TLEs

May 21st 2025 PDT

HST 1 20580U 90037B 25140.95588789 .00005751 00000-0 21534-3 0 9991 2 20580 28.4679 229.4616 0002842 139.9213 220.1592 15.25046011728785 ISS (ZARYA) 1 25544U 98067A 25141.33820368 .00008211 00000-0 15360-3 0 9996 2 25544 51.6382 80.0845 0002544 127.0828 16.1893 15.49641181510997 CXO 1 25867U 99040B 25142.98848869 .00000640 00000-0 00000+0 0 9993 2 25867 48.9452 130.9326 8464725 309.0591 359.8940 0.37807892 27000 ...Continue Reading

[TLELIST] Current TLEs

May 21st 2025 PDT

HST 1 20580U 90037B 25140.95588789 .00005751 00000-0 21534-3 0 9991 2 20580 28.4679 229.4616 0002842 139.9213 220.1592 15.25046011728785 ISS (ZARYA) 1 25544U 98067A 25141.33820368 .00008211 00000-0 15360-3 0 9996 2 25544 51.6382 80.0845 0002544 127.0828 16.1893 15.49641181510997 CXO 1 25867U 99040B 25142.98848869 .00000640 00000-0 00000+0 0 9993 2 25867 48.9452 130.9326 8464725 309.0591 359.8940 0.37807892 27000 ...Continue Reading

[TLELIST] Current TLEs

May 20th 2025 PDT

HST 1 20580U 90037B 25139.58163622 .00005946 00000-0 22302-3 0 9993 2 20580 28.4679 238.7732 0002878 126.1741 233.9120 15.25030744728572 ISS (ZARYA) 1 25544U 98067A 25140.37106448 .00008538 00000-0 15947-3 0 9998 2 25544 51.6374 84.8752 0002574 126.1548 18.1995 15.49625973510849 CXO 1 25867U 99040B 25140.34524790 .00000758 00000-0 00000-0 0 9996 2 25867 48.8715 131.0899 8466009 309.0086 0.0284 0.37801937 15832 ...Continue Reading

[TLELIST] Current TLEs

May 20th 2025 PDT

HST 1 20580U 90037B 25139.58163622 .00005946 00000-0 22302-3 0 9993 2 20580 28.4679 238.7732 0002878 126.1741 233.9120 15.25030744728572 ISS (ZARYA) 1 25544U 98067A 25140.37106448 .00008538 00000-0 15947-3 0 9998 2 25544 51.6374 84.8752 0002574 126.1548 18.1995 15.49625973510849 CXO 1 25867U 99040B 25140.34524790 .00000758 00000-0 00000-0 0 9996 2 25867 48.8715 131.0899 8466009 309.0086 0.0284 0.37801937 15832 ...Continue Reading

[TLELIST] Current TLEs

May 19th 2025 PDT

HST 1 20580U 90037B 25138.60001958 .00007618 00000-0 28808-3 0 9993 2 20580 28.4680 245.4244 0002898 116.3875 243.7017 15.25020924728166 ISS (ZARYA) 1 25544U 98067A 25139.18441541 .00007929 00000-0 14879-3 0 9997 2 25544 51.6355 90.7571 0002193 124.9576 235.1619 15.49604105510665 CXO 1 25867U 99040B 25140.34524790 .00000758 00000-0 00000-0 0 9996 2 25867 48.8715 131.0899 8466009 309.0086 0.0284 0.37801937 15832 ...Continue Reading
  • This mailing list is a public mailing list - anyone may join or leave, at any time.
  • This mailing list is announce-only.

International Space Station (ISS) / Hubble Space Telescope (HST) / Chandra X-Ray Observatory Orbital Data via EMAIL

Privacy Policy:

Private list